This demonstration page uses our WeatherBlox Daily Observations layout. Learn more.

Left ArrowRight Arrow

39.92423, -83.80882

Hourly Observations for July 12, 2021

Temp ( °F °C ) Dew Point ( °F °C ) Humidity (%) Winds ( mph kmh ) Pressure ( in mb ) Visibility ( mi km ) Precip ( " mm )
12:03 am 00:03 Cloudy with Haze 70 21 N/A N/A N N/A 29.96 1014 4 6 N/A
12:56 am 00:56 Cloudy 70 21 N/A N/A N N/A 29.98 1015 10 16 N/A
1:56 am 01:56 Cloudy 70 21 N/A N/A ESE 3 6 29.98 1015 10 16 N/A
2:10 am 02:10 Cloudy 70 21 N/A N/A SE 5 7 29.97 1015 10 16 N/A
2:32 am 02:32 Mostly Cloudy with Light Rain 70 21 N/A N/A SE 5 7 29.97 1015 10 16 0.00 0.00
2:56 am 02:56 Cloudy 70 21 N/A N/A SSE 5 7 29.98 1015 10 16 0.00 0.00
3:12 am 03:12 Cloudy 70 21 N/A N/A W 6 9 29.97 1015 10 16 N/A
3:56 am 03:56 Mostly Cloudy 70 21 N/A N/A E 3 6 29.99 1016 10 16 N/A
4:03 am 04:03 Partly Cloudy 70 21 N/A N/A E 5 7 29.98 1015 10 16 N/A
4:56 am 04:56 Mostly Cloudy 70 21 N/A N/A N N/A 29.99 1016 9 14 N/A
5:56 am 05:56 Cloudy with Haze 68 20 N/A N/A SE 5 7 30.01 1016 6 10 N/A
6:11 am 06:11 Cloudy with Haze 70 21 N/A N/A S 5 7 30.00 1016 6 10 N/A
6:19 am 06:19 Cloudy with Haze 70 21 N/A N/A S 3 6 30.00 1016 5 8 N/A
6:56 am 06:56 Cloudy with Haze 70 21 N/A N/A S 5 7 30.01 1016 6 10 N/A
7:56 am 07:56 Cloudy 72 22 N/A N/A SSW 3 6 30.03 1017 9 14 N/A
8:35 am 08:35 Cloudy 72 22 N/A N/A S 5 7 30.02 1017 10 16 N/A
8:56 am 08:56 Cloudy 73 23 N/A N/A SSW 8 13 30.05 1018 10 16 N/A
9:49 am 09:49 Cloudy 73 23 73 23 100 100 S 8 13 30.04 1017 10 16 N/A
9:56 am 09:56 Cloudy 74 23.3 74 23.3 100 100 SSW 8 13 30.07 1018 10 16 N/A
10:37 am 10:37 Cloudy 75 24 75 24 100 100 SSW 6 9 30.04 1017 10 16 N/A
10:51 am 10:51 Cloudy 75 24 75 24 100 100 S 7 11 30.04 1017 10 16 N/A
10:56 am 10:56 Cloudy 76 24.4 75 23.9 97 97 SSW 6 9 30.06 1018 10 16 N/A
11:07 am 11:07 Cloudy 75 24 75 24 100 100 SSW 8 13 30.04 1017 10 16 N/A
11:56 am 11:56 Cloudy 75 24 N/A N/A SW 6 9 30.07 1018 10 16 0.09 2.29
12:03 pm 12:03 Cloudy with Light Rain 75 24 N/A N/A S 5 7 30.05 1018 10 16 0.00 0.00
12:10 pm 12:10 Cloudy with Light Rain 77 25 N/A N/A SW 6 9 30.04 1017 10 16 0.00 0.00
12:17 pm 12:17 Cloudy 79 26 79 26 100 100 SW 6 9 30.04 1017 10 16 0.00 0.00
12:41 pm 12:41 Mostly Cloudy 77 25 75 24 94 94 SSW 8 13 30.04 1017 10 16 0.00 0.00
12:56 pm 12:56 Mostly Cloudy 78 25.6 76 24.4 93 93 SSW 6 9 30.08 1019 10 16 0.00 0.00
1:43 pm 13:43 Mostly Cloudy 79 26 73 23 84 84 SSW 9 15 30.04 1017 10 16 N/A
1:56 pm 13:56 Mostly Cloudy 78 25.6 75 23.9 90 90 S 7 11 30.08 1019 10 16 N/A
2:26 pm 14:26 Mostly Cloudy 77 25 77 25 100 100 WSW 5 7 30.04 1017 10 16 0.00 0.00
2:49 pm 14:49 Mostly Cloudy with Light Rain 75 24 73 23 94 94 N 5 7 30.05 1018 10 16 0.00 0.00
2:56 pm 14:56 Mostly Cloudy 75 23.9 75 23.9 100 100 NNW 5 7 30.07 1018 10 16 0.00 0.00
3:21 pm 15:21 Mostly Cloudy 77 25 75 24 94 94 W 6 9 30.04 1017 10 16 N/A
3:56 pm 15:56 Cloudy 78 25.6 75 23.9 90 90 VRB 7 11 30.06 1018 10 16 N/A
4:12 pm 16:12 Mostly Cloudy 79 26 73 23 84 84 SSW 8 13 30.02 1017 10 16 N/A
4:56 pm 16:56 Partly Cloudy 81 27.2 74 23.3 79 79 SSW 8 13 30.04 1017 10 16 N/A
5:56 pm 17:56 Mostly Sunny 80 26.7 72 22.2 76 76 S 6 9 30.03 1017 10 16 N/A
6:56 pm 18:56 Mostly Sunny 80 26.7 73 22.8 79 79 S 8 13 30.03 1017 10 16 N/A
7:56 pm 19:56 Mostly Cloudy 78 25.6 76 24.4 93 93 SE 8 13 30.04 1017 10 16 N/A
8:37 pm 20:37 Partly Cloudy with Nearby Thunderstorms 75 24 75 24 100 100 S 3 6 30.03 1017 10 16 N/A
8:56 pm 20:56 Partly Cloudy with Nearby Thunderstorms 75 23.9 74 23.3 96 96 NNW 10 17 30.07 1018 10 16 N/A
9:02 pm 21:02 Mostly Cloudy 73 23 73 23 100 100 N 14 22 30.04 1017 10 16 N/A
9:20 pm 21:20 Partly Cloudy 72 22 72 22 100 100 N 5 7 30.04 1017 10 16 N/A
9:56 pm 21:56 Mostly Clear 70 21 N/A N/A ENE 3 6 30.08 1019 10 16 N/A
10:56 pm 22:56 Mostly Clear 70 21 N/A N/A E 5 7 30.08 1019 10 16 N/A
11:56 pm 23:56 Clear 72 22 N/A N/A SSE 7 11 30.07 1018 10 16 N/A

Powered by AerisWeather